User: anonymous   Login
Location: Strawberry
(45.6646°N, 111.9596°W)
Time: 14:47:21
(UTC+00:00)
Language:

Vanguard 3 - Orbit

View from above orbital plane
View from above orbital plane
View from above satellite
View from above satellite

Ground track
Ground track

The orbit data is extracted from the following two-line orbital elements,

1 00020U 59007A   22275.77731038  .00000628  00000-0  26098-3 0  9991
2 00020  33.3427  77.9881 1664139  30.0564 338.5857 11.56273780327511
Epoch (UTC): 02 October 2022 18:39:19
Eccentricity: 0.1664139
inclination: 33.3427°
perigee height: 508 km
apogee height: 3257 km
right ascension of ascending node: 77.9881°
argument of perigee: 30.0564°
revolutions per day: 11.56273780
mean anomaly at epoch: 338.5857°
orbit number at epoch: 32751

The dashed part of the orbit path shows where the satellite is in the earth's shadow,  

DLR